Location: La Oliva
(42.2466°N, 2.9955°E)
Time: 07:26:12
(UTC+00:00)

NOSS 3-1 (C) - Pass Details

Date: 22 April 2021
Orbit: 732 x 1476 km, 63.4° (Epoch: 18 April)

Event Time Altitude Azimuth Distance (km) Brightness Sun altitude
Rises 21:07:36 0° 326° (NW) 3,916 8.0 -24.2°
Reaches altitude 10° 21:10:11 10° 331° (NNW) 3,059 7.1 -24.6°
Maximum altitude 21:17:32 57° 49° (NE) 1,510 4.4 -25.5°
Enters shadow 21:20:23 40° 103° (ESE) 1,883 4.5 -25.8°
